Le nostre stazioni meteo in Italia

Pubblicità
Il mio iltempo24.it
Monte Settepani, Italia (16111): Temperatura & dewpoint: 24.03.2020 11:00:00 - 30.03.2020 11:00:00 (CEST)Monte Settepani, Italia (16111): velocità del vento: 24.03.2020 11:00:00 - 30.03.2020 11:00:00 (CEST)Monte Settepani, Italia (16111): direzione del vento: 24.03.2020 11:00:00 - 30.03.2020 11:00:00 (CEST)Monte Settepani, Italia (16111): precipitazioni: 24.03.2020 11:00:00 - 30.03.2020 11:00:00 (CEST)
Data & Tempo tt [°C] td [°C] ff [km/h] ff [kn] dd rr [mm]
30.03.2020 11:00:00 - - - - - -
30.03.2020 10:00:00 3,2 3,2 5 3 ONO -
30.03.2020 09:00:00 3,0 3,0 5 3 ONO -
30.03.2020 08:00:00 3,2 3,2 4 2 NO 0,0
30.03.2020 07:00:00 3,1 3,1 2 1 N -
30.03.2020 06:00:00 3,1 3,1 0 0 N -
30.03.2020 05:00:00 2,9 2,9 9 5 SO -
30.03.2020 04:00:00 2,5 2,5 13 7 SO -
30.03.2020 03:00:00 2,0 2,0 18 10 SSO -
30.03.2020 02:00:00 3,1 3,1 15 8 SSO 0,0
30.03.2020 01:00:00 3,6 3,6 15 8 SSO -
30.03.2020 00:00:00 4,2 4,2 15 8 SSO -
29.03.2020 23:00:00 4,4 4,4 13 7 SSO -
29.03.2020 22:00:00 4,3 4,3 15 8 SSO -
29.03.2020 21:00:00 4,3 4,3 15 8 SSO -
29.03.2020 20:00:00 4,4 4,4 13 7 SSO 0,0
29.03.2020 19:00:00 5,3 5,3 13 7 SSO -
29.03.2020 18:00:00 7,1 6,2 15 8 S -
29.03.2020 17:00:00 6,9 6,9 9 5 SSO -
29.03.2020 16:00:00 7,4 7,4 9 5 S -
29.03.2020 15:00:00 8,3 8,3 9 5 S -
29.03.2020 14:00:00 8,0 8,0 5 3 S 0,0
29.03.2020 13:00:00 7,8 7,7 5 3 S -
29.03.2020 12:00:00 9,1 8,0 2 1 SSE -
29.03.2020 11:00:00 8,1 3,7 5 3 SSE -
29.03.2020 10:00:00 7,4 3,2 4 2 S -
29.03.2020 09:00:00 6,2 3,0 2 1 S -
29.03.2020 08:00:00 5,6 2,4 0 0 N 0,0
29.03.2020 07:00:00 5,1 2,9 4 2 NE -
29.03.2020 06:00:00 4,7 3,0 5 3 NNE -
29.03.2020 05:00:00 5,0 2,3 5 3 NNE -
29.03.2020 04:00:00 5,2 2,0 4 2 N -
29.03.2020 03:00:00 5,8 1,7 4 2 N -
29.03.2020 02:00:00 4,8 1,2 5 3 N 0,0
29.03.2020 01:00:00 4,8 1,1 4 2 N -
29.03.2020 00:00:00 4,6 1,0 4 2 N -
28.03.2020 23:00:00 4,9 1,5 4 2 N -
28.03.2020 22:00:00 5,3 2,4 4 2 N -
28.03.2020 21:00:00 5,0 3,9 4 2 N -
28.03.2020 20:00:00 5,4 4,2 4 2 N 0,0
28.03.2020 19:00:00 6,9 4,3 8 4 N -
28.03.2020 18:00:00 7,5 4,0 5 3 N -
28.03.2020 17:00:00 8,8 6,2 4 2 NNE -
28.03.2020 16:00:00 7,6 4,9 5 3 N -
28.03.2020 15:00:00 7,6 4,7 5 3 NO -
28.03.2020 14:00:00 7,0 5,3 9 5 SSO 0,0
28.03.2020 13:00:00 5,8 5,1 11 6 N -
28.03.2020 12:00:00 4,6 4,6 15 8 N -
28.03.2020 11:00:00 3,7 3,7 28 15 N -
28.03.2020 10:00:00 2,3 2,3 26 14 NNO -
28.03.2020 09:00:00 1,0 1,0 35 19 N -
28.03.2020 08:00:00 0,5 0,5 34 18 N 0,0
28.03.2020 07:00:00 0,2 0,2 26 14 N -
28.03.2020 06:00:00 0,1 0,1 21 11 N -
28.03.2020 05:00:00 0,0 0,0 18 10 N -
28.03.2020 04:00:00 -0,1 -0,1 16 9 N -
28.03.2020 03:00:00 -0,1 -0,1 16 9 N -
28.03.2020 02:00:00 -0,1 -0,1 18 10 N 0,0
28.03.2020 01:00:00 -0,1 -0,1 21 11 N -
28.03.2020 00:00:00 -0,2 -0,2 16 9 N -
27.03.2020 23:00:00 -0,3 -0,3 18 10 N -
27.03.2020 22:00:00 -0,3 -0,3 18 10 N -
27.03.2020 21:00:00 -0,5 -0,5 16 9 N -
27.03.2020 20:00:00 -0,9 -0,9 18 10 N 0,0
27.03.2020 19:00:00 -1,1 -1,1 13 7 N -
27.03.2020 18:00:00 -1,5 -1,5 13 7 N -
27.03.2020 17:00:00 -1,6 -1,6 16 9 N -
27.03.2020 16:00:00 -1,7 -1,7 21 11 N -
27.03.2020 15:00:00 -1,8 -1,8 24 13 N -
27.03.2020 14:00:00 -2,0 -2,0 24 13 N 0,0
27.03.2020 13:00:00 -2,2 -2,2 24 13 N -
27.03.2020 12:00:00 -2,4 -2,4 26 14 N -
27.03.2020 11:00:00 -2,4 -2,4 26 14 N -
27.03.2020 10:00:00 -2,6 -2,6 28 15 N -
27.03.2020 09:00:00 -2,7 -2,7 15 8 N -
27.03.2020 08:00:00 -2,7 -2,7 13 7 OSO -
27.03.2020 07:00:00 -3,0 -3,0 21 11 N -
27.03.2020 06:00:00 -3,3 -3,3 16 9 N -
27.03.2020 05:00:00 -3,3 -3,3 21 11 N -
27.03.2020 04:00:00 -3,5 -3,5 21 11 N -
27.03.2020 03:00:00 -3,6 -3,6 29 16 N -
27.03.2020 02:00:00 -3,7 -3,7 28 15 N -
27.03.2020 01:00:00 -3,6 -3,6 39 21 N -
27.03.2020 00:00:00 -3,7 -3,7 39 21 N -
26.03.2020 23:00:00 -3,9 -3,9 37 20 N -
26.03.2020 22:00:00 -4,1 -4,1 39 21 N -
26.03.2020 21:00:00 -4,4 -4,4 37 20 N -
26.03.2020 20:00:00 -4,6 -4,6 41 22 N -
26.03.2020 19:00:00 -5,0 -5,0 46 25 N -
26.03.2020 18:00:00 -5,4 -5,4 48 26 N -
26.03.2020 17:00:00 -5,6 -5,6 44 24 N -
26.03.2020 16:00:00 -5,9 -5,9 28 15 N -
26.03.2020 15:00:00 -6,3 -6,3 28 15 N -
26.03.2020 14:00:00 -5,6 -6,1 35 19 N 0,0
26.03.2020 13:00:00 -5,6 -6,4 39 21 N -
26.03.2020 12:00:00 -6,2 -6,3 41 22 N -
26.03.2020 11:00:00 -6,7 -6,7 50 27 N -
26.03.2020 10:00:00 -7,3 -7,3 46 25 N -
26.03.2020 09:00:00 -7,1 -7,1 42 23 N -
26.03.2020 08:00:00 -7,6 -7,6 42 23 N 0,0
26.03.2020 07:00:00 -7,6 -7,6 39 21 N -
26.03.2020 06:00:00 -7,3 -7,4 46 25 N -
26.03.2020 05:00:00 -7,3 -7,3 46 25 N -
26.03.2020 04:00:00 -7,3 -7,3 41 22 N -
26.03.2020 03:00:00 -6,8 -6,8 28 15 N -
26.03.2020 02:00:00 -6,5 -6,5 29 16 N 0,0
26.03.2020 01:00:00 -6,1 -6,1 26 14 N -
26.03.2020 00:00:00 -6,1 -6,1 31 17 N -
25.03.2020 23:00:00 -6,0 -6,0 29 16 N -
25.03.2020 22:00:00 -5,5 -5,5 26 14 N -
25.03.2020 21:00:00 -4,6 -4,6 11 6 N -
25.03.2020 20:00:00 -4,4 -4,7 21 11 NNE 0,0
25.03.2020 19:00:00 -4,1 -4,1 13 7 NNE -
25.03.2020 18:00:00 -4,1 -4,1 21 11 N -
25.03.2020 17:00:00 -3,9 -4,0 21 11 N -
25.03.2020 16:00:00 -4,7 -4,7 22 12 NNO -
25.03.2020 15:00:00 -4,3 -4,3 15 8 N -
25.03.2020 14:00:00 -4,8 -4,8 24 13 N 0,0
25.03.2020 13:00:00 -5,1 -5,1 28 15 N -
25.03.2020 12:00:00 -5,9 -5,9 21 11 N -
25.03.2020 11:00:00 -5,2 -5,2 16 9 N -
25.03.2020 10:00:00 -6,4 -6,4 21 11 N -
25.03.2020 09:00:00 -6,8 -6,8 21 11 NNO -
25.03.2020 08:00:00 -6,2 -6,9 15 8 NNO 0,0
25.03.2020 07:00:00 -5,4 -6,7 28 15 NNO -
25.03.2020 06:00:00 -4,6 -7,2 18 10 NNO -
25.03.2020 05:00:00 -3,8 -8,2 13 7 N -
25.03.2020 04:00:00 -3,5 -8,3 8 4 NNO -
25.03.2020 03:00:00 -3,3 -7,9 8 4 ONO -
25.03.2020 02:00:00 -3,4 -7,6 11 6 N 0,0
25.03.2020 01:00:00 -3,4 -7,3 13 7 N -
25.03.2020 00:00:00 -2,9 -7,3 15 8 N -
24.03.2020 23:00:00 -2,7 -7,3 15 8 N -
24.03.2020 22:00:00 -2,7 -7,3 18 10 N -
24.03.2020 21:00:00 -2,5 -6,7 18 10 N -
24.03.2020 20:00:00 -2,1 -6,5 21 11 N 0,0
24.03.2020 19:00:00 -1,3 -6,7 16 9 N -
24.03.2020 18:00:00 -0,4 -6,5 13 7 N -
24.03.2020 17:00:00 0,0 -5,9 15 8 N -
24.03.2020 16:00:00 0,0 -5,3 15 8 N -
24.03.2020 15:00:00 -0,3 -4,6 13 7 N -
24.03.2020 14:00:00 0,0 -4,0 11 6 N 0,0
24.03.2020 13:00:00 -0,9 -4,1 9 5 SSE -
24.03.2020 12:00:00 -1,4 -3,5 5 3 NNO -
24.03.2020 11:00:00 - - - - - -

tt = Temperatura
td = dewpoint
ff = velocità del vento
dd = direzione del vento
rr = precipitazioni

Stazioni seguenti

WeatherPro
AMSI
MeteoEarth